QPF
0.00 0.00 0.00 0.00 0.00 0.00 0.00 0.00 0.00 0.00 0.00 0.00 0.00 0.00 0.00 0.00 0.00 0.00 0.00 0.00 0.00 0.00 0.00 0.00 0.01 0.01 0.01 0.01 0.01 0.02 0.02 0.02 0.02 0.02 0.02 0.02 0.02 0.02
0.00 0.00 0.00 0.00 0.00 0.00 0.00 0.00 0.00 0.00 0.00 0.00 0.00 0.00 0.00 0.00 0.00 0.00 0.00 0.00 0.00 0.00 0.00 0.00 0.01 0.01 0.01 0.02 0.02 0.02 0.02 0.02 0.02 0.03 0.03 0.03 0.03 0.03
0.00 0.00 0.00 0.00 0.00 0.00 0.00 0.00 0.00 0.00 0.00 0.00 0.00 0.00 0.00 0.00 0.00 0.00 0.00 0.00 0.00 0.00 0.00 0.01 0.01 0.01 0.02 0.02 0.02 0.03 0.03 0.03 0.03 0.03 0.04 0.04 0.04 0.05
0.00 0.00 0.00 0.00 0.00 0.00 0.00 0.00 0.00 0.00 0.00 0.00 0.00 0.00 0.00 0.00 0.00 0.00 0.00 0.00 0.00 0.00 0.00 0.00 0.01 0.01 0.02 0.02 0.02 0.03 0.03 0.03 0.03 0.03 0.04 0.04 0.04 0.05
0.00 0.00 0.00 0.00 0.00 0.00 0.00 0.00 0.00 0.00 0.00 0.00 0.00 0.00 0.00 0.00 0.00 0.00 0.00 0.00 0.00 0.00 0.00 0.00 0.00 0.01 0.01 0.02 0.02 0.02 0.02 0.02 0.02 0.03 0.03 0.03 0.03 0.04
0.00 0.00 0.00 0.00 0.00 0.00 0.00 0.00 0.00 0.00 0.00 0.00 0.00 0.00 0.00 0.00 0.00 0.00 0.00 0.00 0.00 0.00 0.00 0.00 0.00 0.00 0.01 0.01 0.01 0.01 0.01 0.01 0.01 0.02 0.02 0.02 0.02 0.02
0.00 0.00 0.00 0.00 0.00 0.00 0.00 0.00 0.00 0.01 0.01 0.01 0.01 0.01 0.01 0.01 0.01 0.01 0.01 0.01 0.01 0.00 0.00 0.00 0.00 0.00 0.00 0.00 0.00 0.00 0.00 0.00 0.01 0.01 0.02 0.02 0.02 0.02
0.00 0.00 0.00 0.00 0.00 0.00 0.00 0.00 0.00 0.01 0.01 0.02 0.02 0.02 0.01 0.01 0.01 0.02 0.02 0.02 0.02 0.01 0.01 0.01 0.00 0.00 0.00 0.00 0.00 0.00 0.01 0.01 0.02 0.03 0.03 0.03 0.03 0.03
0.00 0.00 0.00 0.00 0.00 0.00 0.00 0.00 0.00 0.00 0.01 0.01 0.02 0.02 0.01 0.01 0.02 0.03 0.03 0.04 0.03 0.02 0.02 0.02 0.01 0.01 0.00 0.00 0.00 0.01 0.01 0.02 0.02 0.03 0.03 0.03 0.03 0.03
0.00 0.00 0.00 0.00 0.00 0.00 0.00 0.00 0.00 0.00 0.00 0.01 0.01 0.01 0.01 0.02 0.03 0.05 0.06 0.06 0.04 0.02 0.02 0.02 0.01 0.01 0.00 0.00 0.00 0.00 0.01 0.01 0.02 0.02 0.03 0.03 0.02 0.02
0.00 0.00 0.00 0.00 0.00 0.00 0.01 0.01 0.01 0.00 0.00 0.01 0.01 0.02 0.03 0.03 0.03 0.04 0.05 0.05 0.03 0.01 0.01 0.02 0.01 0.01 0.00 0.00 0.00 0.00 0.00 0.01 0.01 0.02 0.02 0.02 0.02 0.02
0.00 0.00 0.00 0.00 0.00 0.01 0.01 0.01 0.01 0.01 0.01 0.01 0.01 0.01 0.01 0.01 0.01 0.01 0.02 0.03 0.03 0.02 0.01 0.01 0.02 0.02 0.03 0.01 0.00 0.00 0.01 0.01 0.01 0.01 0.01 0.01 0.01 0.02
0.00 0.00 0.00 0.00 0.01 0.01 0.01 0.02 0.02 0.02 0.02 0.02 0.02 0.01 0.01 0.00 0.00 0.00 0.01 0.03 0.04 0.03 0.01 0.03 0.04 0.03 0.04 0.02 0.01 0.00 0.00 0.00 0.00 0.00 0.00 0.00 0.00 0.01
0.00 0.00 0.00 0.00 0.01 0.01 0.01 0.01 0.02 0.02 0.02 0.02 0.01 0.01 0.00 0.00 0.00 0.00 0.00 0.01 0.02 0.02 0.01 0.03 0.06 0.05 0.05 0.03 0.01 0.01 0.00 0.00 0.00 0.00 0.00 0.00 0.00 0.01
0.00 0.00 0.01 0.01 0.01 0.01 0.01 0.01 0.01 0.01 0.01 0.01 0.01 0.00 0.00 0.00 0.00 0.00 0.00 0.00 0.01 0.00 0.00 0.01 0.04 0.05 0.05 0.05 0.02 0.01 0.01 0.01 0.00 0.00 0.00 0.00 0.00 0.00
0.00 0.01 0.01 0.01 0.01 0.00 0.00 0.01 0.00 0.00 0.01 0.01 0.01 0.00 0.00 0.00 0.01 0.01 0.01 0.01 0.01 0.00 0.00 0.01 0.02 0.04 0.04 0.03 0.02 0.02 0.01 0.01 0.01 0.00 0.00 0.00 0.00 0.00
0.02 0.02 0.02 0.01 0.01 0.00 0.00 0.00 0.00 0.00 0.00 0.01 0.01 0.01 0.01 0.01 0.01 0.01 0.01 0.01 0.02 0.01 0.01 0.01 0.01 0.01 0.02 0.02 0.02 0.01 0.01 0.01 0.01 0.01 0.01 0.00 0.00 0.00
0.02 0.02 0.01 0.01 0.01 0.01 0.01 0.01 0.00 0.00 0.00 0.01 0.01 0.01 0.01 0.01 0.01 0.01 0.01 0.02 0.02 0.01 0.01 0.01 0.01 0.01 0.01 0.01 0.01 0.01 0.01 0.01 0.01 0.01 0.01 0.01 0.00 0.00
0.01 0.01 0.01 0.01 0.00 0.01 0.01 0.01 0.01 0.00 0.00 0.01 0.01 0.01 0.01 0.01 0.01 0.01 0.01 0.01 0.01 0.01 0.01 0.01 0.01 0.02 0.02 0.01 0.00 0.00 0.01 0.01 0.01 0.01 0.01 0.00 0.00 0.00
0.00 0.00 0.00 0.00 0.00 0.01 0.01 0.01 0.01 0.01 0.01 0.01 0.01 0.01 0.01 0.02 0.02 0.01 0.01 0.01 0.01 0.01 0.01 0.01 0.01 0.02 0.03 0.02 0.02 0.01 0.01 0.01 0.01 0.01 0.01 0.00 0.00 0.00
0.00 0.00 0.00 0.00 0.00 0.01 0.01 0.01 0.01 0.01 0.01 0.01 0.01 0.01 0.01 0.02 0.02 0.01 0.01 0.01 0.01 0.01 0.01 0.01 0.01 0.01 0.02 0.02 0.02 0.01 0.01 0.01 0.01 0.01 0.01 0.01 0.01 0.01
0.00 0.01 0.01 0.01 0.01 0.01 0.01 0.01 0.01 0.01 0.01 0.01 0.01 0.01 0.01 0.02 0.02 0.02 0.01 0.02 0.01 0.01 0.01 0.01 0.01 0.01 0.02 0.02 0.01 0.01 0.01 0.01 0.01 0.01 0.01 0.01 0.01 0.01
0.01 0.01 0.01 0.01 0.01 0.01 0.01 0.01 0.02 0.01 0.01 0.01 0.01 0.01 0.01 0.02 0.02 0.02 0.02 0.01 0.01 0.01 0.01 0.01 0.01 0.01 0.01 0.01 0.01 0.01 0.01 0.01 0.01 0.01 0.01 0.01 0.01 0.01
MSLP
1022.49 1022.66 1022.77 1022.82 1022.80 1022.68 1022.48 1022.19 1021.85 1021.46 1021.07 1020.68 1020.32 1020.00 1019.72 1019.46 1019.21 1018.95 1018.66 1018.33 1017.95 1017.52 1017.05 1016.56 1016.06 1015.56 1015.08 1014.63 1014.19 1013.77 1013.36 1012.94 1012.51 1012.06 1011.59 1011.11 1010.63 1010.17
1022.38 1022.52 1022.62 1022.66 1022.63 1022.52 1022.33 1022.07 1021.76 1021.40 1021.02 1020.64 1020.26 1019.91 1019.57 1019.24 1018.91 1018.57 1018.20 1017.81 1017.38 1016.93 1016.45 1015.97 1015.48 1015.01 1014.55 1014.11 1013.68 1013.26 1012.84 1012.40 1011.95 1011.49 1011.00 1010.51 1010.02 1009.55
1022.13 1022.25 1022.31 1022.34 1022.30 1022.20 1022.03 1021.81 1021.54 1021.22 1020.88 1020.51 1020.14 1019.75 1019.37 1018.97 1018.56 1018.14 1017.70 1017.23 1016.76 1016.27 1015.78 1015.29 1014.81 1014.35 1013.91 1013.48 1013.06 1012.64 1012.22 1011.79 1011.34 1010.87 1010.39 1009.90 1009.42 1008.96
1021.77 1021.84 1021.88 1021.88 1021.83 1021.74 1021.61 1021.43 1021.20 1020.94 1020.63 1020.30 1019.93 1019.53 1019.11 1018.66 1018.18 1017.69 1017.17 1016.65 1016.12 1015.59 1015.07 1014.57 1014.09 1013.63 1013.19 1012.76 1012.35 1011.93 1011.52 1011.09 1010.66 1010.21 1009.75 1009.29 1008.83 1008.39
1021.32 1021.34 1021.34 1021.32 1021.26 1021.18 1021.08 1020.93 1020.76 1020.54 1020.28 1019.98 1019.63 1019.24 1018.79 1018.31 1017.79 1017.24 1016.67 1016.09 1015.51 1014.94 1014.39 1013.86 1013.36 1012.88 1012.42 1011.98 1011.56 1011.15 1010.74 1010.33 1009.92 1009.50 1009.08 1008.66 1008.25 1007.84
1020.78 1020.77 1020.74 1020.69 1020.63 1020.55 1020.46 1020.35 1020.22 1020.04 1019.83 1019.56 1019.24 1018.85 1018.41 1017.92 1017.38 1016.80 1016.20 1015.59 1014.97 1014.37 1013.78 1013.21 1012.67 1012.15 1011.65 1011.18 1010.74 1010.31 1009.90 1009.51 1009.14 1008.77 1008.40 1008.04 1007.67 1007.31
1020.20 1020.15 1020.09 1020.01 1019.94 1019.86 1019.78 1019.69 1019.58 1019.44 1019.26 1019.02 1018.73 1018.38 1017.96 1017.48 1016.95 1016.38 1015.78 1015.16 1014.52 1013.89 1013.26 1012.65 1012.05 1011.47 1010.92 1010.40 1009.92 1009.47 1009.06 1008.69 1008.35 1008.03 1007.72 1007.41 1007.10 1006.78
1019.57 1019.49 1019.40 1019.31 1019.22 1019.14 1019.05 1018.97 1018.86 1018.74 1018.58 1018.38 1018.12 1017.81 1017.43 1017.00 1016.51 1015.97 1015.39 1014.78 1014.15 1013.50 1012.83 1012.17 1011.51 1010.87 1010.26 1009.68 1009.15 1008.68 1008.27 1007.91 1007.60 1007.32 1007.07 1006.82 1006.56 1006.28
1018.91 1018.81 1018.70 1018.58 1018.47 1018.37 1018.27 1018.17 1018.06 1017.94 1017.80 1017.62 1017.40 1017.14 1016.82 1016.45 1016.02 1015.55 1015.02 1014.45 1013.83 1013.17 1012.49 1011.78 1011.06 1010.36 1009.68 1009.05 1008.48 1007.98 1007.57 1007.22 1006.94 1006.71 1006.50 1006.29 1006.07 1005.82
1018.22 1018.09 1017.96 1017.82 1017.69 1017.56 1017.43 1017.31 1017.19 1017.06 1016.92 1016.77 1016.58 1016.37 1016.12 1015.83 1015.49 1015.09 1014.63 1014.11 1013.52 1012.88 1012.18 1011.44 1010.68 1009.93 1009.20 1008.53 1007.93 1007.42 1007.01 1006.68 1006.43 1006.23 1006.06 1005.88 1005.68 1005.45
1017.48 1017.34 1017.19 1017.02 1016.86 1016.70 1016.54 1016.40 1016.25 1016.11 1015.97 1015.84 1015.69 1015.53 1015.36 1015.14 1014.89 1014.57 1014.19 1013.73 1013.19 1012.57 1011.88 1011.13 1010.35 1009.57 1008.82 1008.13 1007.53 1007.02 1006.63 1006.33 1006.10 1005.93 1005.78 1005.62 1005.42 1005.18
1016.71 1016.55 1016.38 1016.19 1016.00 1015.81 1015.62 1015.44 1015.28 1015.12 1014.99 1014.87 1014.76 1014.65 1014.54 1014.40 1014.23 1014.00 1013.69 1013.30 1012.80 1012.22 1011.54 1010.80 1010.03 1009.25 1008.50 1007.83 1007.25 1006.77 1006.41 1006.15 1005.96 1005.81 1005.68 1005.52 1005.32 1005.06
1015.90 1015.72 1015.52 1015.32 1015.10 1014.89 1014.67 1014.48 1014.29 1014.13 1014.00 1013.90 1013.82 1013.76 1013.71 1013.64 1013.53 1013.37 1013.13 1012.79 1012.35 1011.79 1011.15 1010.44 1009.69 1008.94 1008.23 1007.59 1007.06 1006.64 1006.33 1006.12 1005.97 1005.85 1005.73 1005.57 1005.36 1005.08
1015.04 1014.85 1014.64 1014.41 1014.18 1013.95 1013.73 1013.52 1013.33 1013.17 1013.05 1012.97 1012.92 1012.90 1012.89 1012.87 1012.82 1012.71 1012.52 1012.22 1011.82 1011.30 1010.69 1010.02 1009.31 1008.61 1007.96 1007.39 1006.92 1006.58 1006.33 1006.18 1006.08 1006.00 1005.89 1005.74 1005.51 1005.21
1014.15 1013.95 1013.73 1013.50 1013.26 1013.03 1012.81 1012.60 1012.42 1012.28 1012.17 1012.11 1012.09 1012.10 1012.12 1012.14 1012.12 1012.04 1011.88 1011.61 1011.23 1010.75 1010.18 1009.54 1008.89 1008.25 1007.67 1007.17 1006.79 1006.52 1006.36 1006.27 1006.22 1006.18 1006.10 1005.96 1005.73 1005.43
1013.24 1013.02 1012.80 1012.58 1012.35 1012.14 1011.93 1011.74 1011.58 1011.46 1011.38 1011.34 1011.34 1011.37 1011.42 1011.45 1011.45 1011.38 1011.23 1010.98 1010.62 1010.16 1009.62 1009.03 1008.43 1007.85 1007.34 1006.92 1006.62 1006.43 1006.35 1006.33 1006.34 1006.34 1006.30 1006.19 1005.98 1005.69
1012.30 1012.09 1011.88 1011.66 1011.46 1011.26 1011.09 1010.93 1010.80 1010.71 1010.66 1010.66 1010.68 1010.73 1010.78 1010.82 1010.82 1010.76 1010.61 1010.36 1010.00 1009.56 1009.05 1008.49 1007.94 1007.42 1006.97 1006.63 1006.40 1006.29 1006.27 1006.32 1006.39 1006.44 1006.45 1006.38 1006.21 1005.96
1011.37 1011.16 1010.96 1010.76 1010.58 1010.42 1010.28 1010.16 1010.08 1010.03 1010.01 1010.03 1010.08 1010.14 1010.21 1010.24 1010.24 1010.17 1010.01 1009.76 1009.41 1008.98 1008.49 1007.96 1007.45 1006.98 1006.60 1006.31 1006.15 1006.09 1006.13 1006.23 1006.35 1006.47 1006.53 1006.51 1006.40 1006.20
1010.44 1010.24 1010.05 1009.87 1009.72 1009.59 1009.49 1009.42 1009.37 1009.36 1009.39 1009.44 1009.51 1009.58 1009.65 1009.69 1009.68 1009.60 1009.44 1009.19 1008.85 1008.43 1007.96 1007.47 1007.00 1006.58 1006.23 1006.00 1005.88 1005.87 1005.95 1006.10 1006.27 1006.43 1006.55 1006.59 1006.55 1006.43
1009.52 1009.32 1009.15 1008.99 1008.86 1008.77 1008.70 1008.66 1008.66 1008.70 1008.75 1008.84 1008.93 1009.02 1009.10 1009.14 1009.13 1009.05 1008.89 1008.65 1008.32 1007.93 1007.49 1007.04 1006.60 1006.22 1005.92 1005.73 1005.64 1005.67 1005.78 1005.97 1006.18 1006.38 1006.55 1006.66 1006.69 1006.65
1008.62 1008.42 1008.25 1008.11 1008.00 1007.93 1007.90 1007.90 1007.93 1008.00 1008.09 1008.20 1008.32 1008.43 1008.52 1008.57 1008.57 1008.50 1008.35 1008.13 1007.82 1007.46 1007.07 1006.66 1006.27 1005.93 1005.68 1005.52 1005.46 1005.52 1005.66 1005.87 1006.11 1006.36 1006.58 1006.74 1006.84 1006.87
1007.74 1007.54 1007.37 1007.23 1007.14 1007.08 1007.07 1007.11 1007.18 1007.28 1007.40 1007.53 1007.67 1007.80 1007.90 1007.97 1007.97 1007.92 1007.80 1007.60 1007.34 1007.02 1006.68 1006.33 1005.99 1005.71 1005.49 1005.37 1005.35 1005.43 1005.60 1005.83 1006.09 1006.37 1006.63 1006.85 1007.00 1007.10
1006.89 1006.67 1006.49 1006.36 1006.27 1006.24 1006.25 1006.31 1006.41 1006.53 1006.68 1006.84 1006.99 1007.13 1007.25 1007.32 1007.35 1007.32 1007.22 1007.06 1006.85 1006.58 1006.30 1006.01 1005.74 1005.51 1005.35 1005.27 1005.29 1005.39 1005.58 1005.83 1006.12 1006.42 1006.71 1006.97 1007.17 1007.32
Thickness
5504 5499 5494 5490 5485 5481 5477 5473 5470 5475 5483 5480 5474 5469 5463 5460 5458 5455 5455 5454 5451 5448 5446 5445 5444 5443 5444 5444 5445 5446 5447 5448 5450 5451 5454 5456 5459 5462
5493 5489 5485 5481 5476 5471 5466 5462 5459 5457 5462 5466 5461 5457 5453 5449 5445 5442 5441 5439 5437 5434 5431 5429 5427 5427 5426 5426 5427 5428 5429 5430 5431 5433 5435 5438 5441 5444
5485 5480 5475 5470 5466 5462 5457 5453 5449 5446 5447 5452 5447 5444 5439 5435 5432 5428 5425 5423 5421 5418 5414 5412 5409 5408 5407 5407 5407 5407 5408 5409 5410 5412 5414 5417 5420 5424
5477 5471 5466 5461 5456 5452 5448 5444 5440 5436 5434 5436 5435 5430 5425 5420 5416 5413 5409 5405 5402 5400 5395 5392 5389 5387 5386 5385 5385 5385 5385 5386 5388 5389 5392 5395 5398 5401
5468 5462 5457 5452 5448 5443 5438 5434 5430 5425 5421 5420 5421 5415 5410 5404 5401 5397 5393 5388 5384 5380 5376 5372 5369 5367 5365 5364 5363 5363 5363 5364 5365 5367 5368 5371 5375 5379
5458 5452 5447 5442 5438 5433 5428 5424 5419 5414 5410 5406 5404 5400 5395 5389 5383 5379 5377 5371 5366 5360 5356 5352 5350 5347 5346 5345 5344 5343 5342 5343 5344 5347 5349 5352 5355 5359
5450 5444 5439 5433 5428 5422 5417 5413 5407 5402 5397 5392 5389 5385 5380 5373 5365 5359 5355 5353 5349 5339 5337 5335 5331 5331 5329 5328 5328 5327 5326 5327 5329 5331 5334 5337 5340 5343
5443 5437 5432 5426 5419 5413 5407 5402 5395 5388 5383 5377 5373 5367 5363 5354 5348 5341 5335 5332 5332 5325 5318 5319 5314 5315 5315 5315 5315 5314 5314 5315 5317 5320 5323 5326 5329 5333
5435 5429 5424 5418 5410 5404 5399 5392 5384 5375 5367 5360 5356 5351 5345 5338 5330 5325 5319 5313 5311 5308 5302 5306 5303 5304 5304 5305 5304 5304 5306 5307 5309 5312 5315 5318 5321 5325
5426 5420 5414 5408 5400 5392 5387 5381 5373 5366 5357 5349 5343 5337 5328 5321 5313 5308 5303 5301 5300 5296 5290 5292 5295 5295 5296 5296 5296 5297 5299 5301 5303 5305 5308 5312 5315 5319
5417 5410 5403 5397 5390 5380 5374 5369 5364 5357 5347 5339 5331 5323 5315 5308 5299 5294 5291 5287 5290 5290 5283 5281 5285 5285 5287 5289 5291 5292 5294 5295 5297 5300 5303 5306 5310 5314
5408 5401 5393 5385 5377 5368 5360 5355 5350 5345 5337 5330 5321 5313 5304 5297 5289 5282 5277 5275 5276 5278 5277 5273 5273 5273 5279 5284 5285 5286 5288 5291 5293 5296 5299 5302 5305 5308
5398 5391 5384 5375 5366 5357 5348 5342 5336 5330 5324 5317 5310 5302 5294 5287 5281 5274 5268 5264 5264 5266 5265 5263 5263 5264 5266 5274 5278 5281 5284 5287 5290 5293 5296 5298 5301 5303
5386 5380 5373 5364 5354 5346 5338 5331 5324 5316 5310 5303 5296 5291 5285 5279 5273 5267 5262 5258 5256 5256 5256 5255 5256 5258 5261 5267 5273 5278 5279 5282 5285 5289 5292 5295 5297 5300
5374 5368 5360 5352 5343 5337 5329 5320 5312 5304 5297 5290 5285 5281 5275 5270 5265 5260 5257 5254 5252 5252 5252 5252 5252 5254 5256 5261 5266 5271 5274 5278 5282 5285 5288 5290 5293 5296
5361 5356 5348 5341 5333 5325 5318 5310 5301 5292 5285 5279 5275 5270 5265 5261 5257 5254 5251 5250 5250 5251 5251 5250 5251 5252 5255 5258 5261 5266 5270 5273 5277 5280 5282 5286 5288 5291
5349 5344 5339 5332 5326 5318 5309 5301 5292 5283 5275 5269 5264 5260 5256 5253 5250 5247 5245 5244 5245 5247 5248 5249 5249 5250 5252 5255 5259 5264 5268 5271 5273 5275 5278 5281 5285 5288
5337 5334 5329 5322 5314 5307 5298 5290 5281 5273 5267 5261 5255 5251 5248 5245 5243 5242 5240 5240 5241 5243 5244 5245 5246 5248 5252 5256 5257 5261 5264 5267 5269 5271 5273 5277 5281 5285
5326 5322 5316 5309 5302 5294 5286 5278 5271 5264 5258 5252 5247 5243 5240 5238 5237 5237 5237 5237 5238 5239 5240 5241 5242 5244 5248 5253 5257 5256 5259 5262 5265 5268 5270 5273 5277 5281
5316 5310 5304 5297 5289 5282 5275 5268 5262 5256 5250 5244 5240 5237 5234 5233 5233 5233 5234 5234 5235 5236 5237 5238 5239 5240 5242 5246 5250 5252 5254 5257 5261 5264 5267 5270 5273 5277
5306 5299 5292 5285 5278 5272 5265 5259 5253 5248 5243 5238 5235 5232 5231 5230 5230 5230 5231 5231 5231 5233 5235 5236 5237 5236 5236 5239 5244 5250 5252 5253 5256 5259 5263 5266 5271 5276
5293 5287 5281 5274 5268 5262 5256 5250 5245 5241 5237 5233 5231 5229 5228 5227 5227 5227 5228 5229 5230 5231 5232 5233 5233 5233 5235 5238 5243 5247 5249 5251 5254 5256 5258 5261 5266 5271
5282 5277 5271 5265 5259 5254 5248 5243 5238 5235 5232 5230 5228 5226 5225 5224 5225 5225 5226 5227 5227 5229 5229 5230 5231 5232 5234 5236 5240 5243 5245 5248 5252 5255 5258 5260 5262 5265